Tracking 19720 objects as of 26-Jun-2019
HD Live streaming from Space Station
objects crossing your sky now

COSMOS 1823 DEB

Track COSMOS 1823 DEB now!
10-day predictions


NORAD ID: 18737
Int'l Code: 1987-020Q
Perigee: 1,485.0 km
Apogee: 1,530.0 km
Inclination: 73.6 °
Period: 116.0 minutes
Semi major axis: 7878 km
RCS: 0.232 m2 (medium)
Launch date: February 20, 1987
Source: Commonwealth of Independent States (former USSR) (CIS)
Launch site: PLESETSK MISSILE AND SPACE COMPLEX (PKMTR)

Note: This is SATELLITE DEBRIS
aabbcc
Your satellite tracking list
Your tracking list is empty




NASA's NSSDC Master Catalog

Two Line Element Set (TLE):
1 18737U 87020Q   19177.48058010  .00000026  00000-0  32182-3 0  9991
2 18737  73.6028 219.9830 0028583 284.4095 181.2349 12.41471302428652
Source of the keplerian elements: AFSPC